This is the latest recevied weather packets stored in our database for station/object WBKK. If no packets are shown the sender has not sent any weather packets the latest 10 day(s).
| Time | Temp. | Humidity | Pressure | Rain* | Wind** | Luminosity | Snow |
|---|---|---|---|---|---|---|---|
| 1777842725 | 25° C | 94% | 1008 hPa | - | - | - | - |
| 1777835524 | 25° C | 94% | 1007 hPa | - | - | - | - |
| 1777833656 | 25° C | 94% | 1007 hPa | - | - | - | - |
| 1777831923 | 25° C | 94% | 1007 hPa | - | - | - | - |
| 1777828350 | 25° C | 94% | 1008 hPa | - | - | - | - |
| 1777824723 | 25° C | 94% | 1008 hPa | - | - | - | - |
| 1777815660 | 25° C | 94% | 1009 hPa | - | - | - | - |
| 1777812056 | 25° C | 94% | 1008 hPa | - | - | - | - |
| 1777810351 | 25° C | 94% | 1008 hPa | - | - | - | - |
| 1777806726 | 26.67° C | 94% | 1007 hPa | - | - | - | - |
| 1777803122 | 30° C | 79% | 1006 hPa | - | - | - | - |
| 1777799522 | 30.56° C | 74% | 1006 hPa | - | - | - | - |
| 1777797654 | 30° C | 79% | 1005 hPa | - | - | - | - |
| 1777795950 | 30° C | 79% | 1005 hPa | - | - | - | - |
| 1777794062 | 31.67° C | 70% | 1006 hPa | - | - | - | - |
| 1777792323 | 31.67° C | 74% | 1006 hPa | - | - | - | - |
| 1777790458 | 32.78° C | 66% | 1006 hPa | - | - | - | - |
| 1777788723 | 31.67° C | 70% | 1007 hPa | - | - | - | - |
| 1777786859 | 31.67° C | 70% | 1007 hPa | - | - | - | - |
| 1777785122 | 31.67° C | 74% | 1008 hPa | - | - | - | - |
| 1777783255 | 31.67° C | 70% | 1008 hPa | - | - | - | - |
| 1777781549 | 31.67° C | 70% | 1009 hPa | - | - | - | - |
| 1777779654 | 31.67° C | 70% | 1009 hPa | - | - | - | - |
| 1777777923 | 31.67° C | 66% | 1009 hPa | - | - | - | - |
| 1777776054 | 30.56° C | 74% | 1009 hPa | - | - | - | - |
* Rain since midnight (hover to see other rain measurements)
** Current wind speed in m/s (hover to see current wind gust speed)